x

Tanner Bank - 121nm West Of San Diego, Ca (46047) Wave Buoy

7:50 - Tue 28th Mar 2017 All times are PDT. -7 hours from GMT.

  • Sig Wave height 10.8ft
  • Swell Direction
  • Peak Period 10s
  • Average Period 7s
  • Wind
    25mph, 29mph gusts
  • Sea Temp 58°f
  • Ar Temp 57°f
  • Sea Pressure 1017.4mb
  • Tanner Bank - 121nm West Of San Diego, Ca
  • Tanner Bank - 121nm West Of San Diego, Ca

More Historic Weather Station data

Upgrade to MSW Pro to gain access to the past 30 days of data for over 8000 Wavebouys and Weather Stations around the globe.

Join Pro

Comparision Forecast

View Surf forecast
   
Ter 03/28 7:50 11ft 10s 7s 25 29 mph 1017.4mb 58f 57f
6:50 12ft 10s 8s 22 27 mph 1016.6mb 58f 57f
5:50 13ft 10s 7s 25 29 mph 1016.4mb 58f 57f
4:50 13.5ft 10s 8s 25 31 mph 1016.3mb 58f 57f
3:50 13ft 10s 7s 25 31 mph 1016.3mb 58f 57f
2:50 15ft 10s 8s 27 34 mph 1016.8mb 58f 57f
1:50 13ft 10s 7s 27 34 mph 1017.2mb 58f 57f
12:50 15ft 9s 7s 29 36 mph 1017mb 58f 57f
Seg 03/27 11:50 14ft 9s 7s 34 40 mph 1016.8mb 58f 57f
10:50 13ft 9s 7s 29 36 mph 1018.2mb 59f 57f
9:50 13ft 8s 7s 34 45 mph 1016.2mb 59f 57f
8:50 13ft 9s 7s 31 40 mph 1017mb 59f 57f
7:50 13ft 9s 7s 36 45 mph 1016.7mb 59f 57f
6:50 12.5ft 8s 7s 31 38 mph 1016.7mb 59f 58f
5:50 11ft 8s 6s 31 38 mph 1017.2mb 59f 58f
4:50 10.5ft 8s 6s 31 40 mph 1017.3mb 59f 58f
3:50 10ft 8s 6s 31 36 mph 1017.7mb 59f 58f
2:50 10ft 8s 6s 29 36 mph 1017.8mb 59f 58f
1:50 10ft 7s 6s 27 34 mph 1018.2mb 59f 58f
12:50 9ft 7s 6s 29 34 mph 1018.8mb 59f 57f
11:50 8ft 6s 6s 29 34 mph 1019.3mb 59f 57f
10:50 8ft 11s 6s 27 34 mph 1019.1mb 59f 57f
9:50 8ft 6s 6s 27 34 mph 1018.9mb 59f 58f
8:50 7.5ft 12s 6s 25 31 mph 1018.8mb 59f 57f
7:50 7ft 12s 6s 22 29 mph 1018.1mb 59f 58f
6:50 8ft 12s 6s 22 27 mph 1017.5mb 59f 58f
5:50 7ft 12s 6s 27 31 mph 1017.1mb 60f 58f
4:50 8ft 13s 6s 22 27 mph 1017.3mb 60f 58f
3:50 8ft 13s 6s 25 29 mph 1017.5mb 59f 58f
2:50 8ft 12s 6s 25 31 mph 1017.7mb 60f 58f
1:50 7.5ft 13s 6s 22 29 mph 1018.2mb 60f 58f
12:50 8ft 13s 6s 20 25 mph 1018.3mb 60f 58f
Dom 03/26 11:50 8ft 14s 6s 22 27 mph 1018.6mb 60f 58f
10:50 8ft 14s 7s 22 29 mph 1018.6mb 60f 58f
9:50 8ft 14s 6s 22 25 mph 1018.7mb 60f 58f
8:50 8ft 11s 6s 25 29 mph 1018.3mb 60f 58f
7:50 8ft 14s 6s 22 27 mph 1018.1mb 60f 58f
6:50 8ft 13s 6s 22 27 mph 1018mb 60f 58f
5:50 8ft 13s 6s 22 25 mph 1018.1mb 60f 58f
4:50 8ft 14s 6s 22 27 mph 1018.5mb 60f 58f
3:50 8ft 13s 6s 22 27 mph 1018.9mb 60f 58f
2:50 8.5ft 14s 6s 25 29 mph 1019.1mb 60f 58f
1:50 9ft 14s 7s 22 27 mph 1019.4mb 60f 58f
12:50 8.5ft 14s 7s 20 25 mph 1019.5mb 60f 57f
11:50 9ft 15s 7s 22 25 mph 1019.3mb 60f 57f
10:50 8ft 14s 7s 20 25 mph 1019.1mb 60f 57f
9:50 8.5ft 14s 7s 20 25 mph 1018.6mb 60f 57f
8:50 9ft 14s 7s 18 22 mph 1018.1mb 60f 57f
7:50 8.5ft 15s 7s 20 22 mph 1017.7mb 60f 57f
6:50 8ft 14s 6s 20 25 mph 1017.4mb 60f 57f
5:50 8ft 7s 6s 22 27 mph 1017mb 60f 57f
4:50 8.5ft 15s 7s 20 25 mph 1016.7mb 60f 57f
3:50 8ft 15s 6s 22 27 mph 1016.9mb 60f 57f
2:50 8.5ft 15s 6s 22 29 mph 1017.2mb 60f 57f
1:50 8.5ft 16s 6s 22 27 mph 1017.5mb 60f 57f
12:50 9ft 16s 6s 20 25 mph 1017.8mb 60f 58f
Sáb 03/25 11:50 8ft 16s 7s 22 27 mph 1018.2mb 60f 58f
10:50 7.5ft 16s 6s 22 27 mph 1018.3mb 60f 58f
9:50 7.5ft 16s 6s 22 27 mph 1018.5mb 60f 58f
8:50 7ft 16s 6s 22 27 mph 1018.6mb 60f 58f
7:50 7ft 12s 6s 22 27 mph 1018.2mb 60f 58f
6:50 6.5ft 11s 6s 22 27 mph 1018.3mb 60f 58f
5:50 7ft 12s 6s 20 22 mph 1018.1mb 60f 58f
4:50 7ft 10s 6s 22 27 mph 1018.1mb 60f 58f
3:50 7ft 10s 6s 22 27 mph 1018.6mb 60f 58f
2:50 6.5ft 12s 6s 22 25 mph 1019.1mb 60f 58f
1:50 6ft 13s 6s 20 25 mph 1019.7mb 60f 58f
12:50 6ft 15s 6s 22 27 mph 1019.8mb 60f 58f
11:50 6ft 10s 7s 18 20 mph 1019.7mb 60f 59f
10:50 5.5ft 11s 7s 9 11 mph 1019.9mb 60f 58f
9:50 5ft 14s 7s 11 13 mph 1020.2mb 59f 58f
8:50 5.5ft 10s 7s 9 11 mph 1020.7mb 59f 59f
7:50 5.5ft 11s 7s 11 13 mph 1020.5mb 59f 59f
6:50 6ft 15s 7s 11 13 mph 1020.2mb 59f 59f
5:50 5.5ft 11s 7s 13 18 mph 1020mb 59f 59f
4:50 5.5ft 14s 7s 16 20 mph 1020.2mb 59f 59f
3:50 5ft 14s 7s 16 20 mph 1020.8mb 59f 59f
2:50 5ft 13s 7s 16 20 mph 1021.4mb 59f 59f
1:50 5ft 15s 7s 13 18 mph 1021.8mb 59f 59f
12:50 5ft 14s 7s 7 9 mph 1021.7mb 59f 58f
Sex 03/24 11:50 5ft 15s 7s 2 4 mph 1021.5mb 59f 58f
10:50 5.5ft 15s 6s 13 16 mph 1022.7mb 59f 58f
9:50 5.5ft 15s 6s 16 20 mph 1023mb 59f 58f
8:50 5ft 14s 6s 18 22 mph 1023.2mb 59f 58f
7:50 5ft 8s 6s 18 20 mph 1022.9mb 59f 58f